sat.trackr.live / text

‹ back to catalog

STARLINK-30174

NORAD 57609 · 2023-119H

PAYLOAD ACTIVE UNKNOWN

§ Identity

Operator
Country
US
Launch date
2023-08-11
Launch site
AFETR
Launch vehicle
Mass (kg)
RCS (m²)

Purposes: comms

External: N2YO · Heavens-Above · Gunter

§ Orbital elements

Epoch: 2026-05-24T22:55:41.947104Z

Period
94.27 min
Inclination
43.0048°
Eccentricity
0.0001138
Mean motion
15.27568368 rev/d
Perigee alt
482.3 km
Apogee alt
483.9 km
Semi-major
6,861.2 km
B*
-3.7319e-5
RAAN
10.5758°
Arg perigee
244.4142°
Mean anomaly
115.6592°
Rev number
15,475

§ Raw data

STARLINK-301741 57609U 23119H   26144.95534661 -.00001288  00000+0 -37319-4 0  99962 57609  43.0048  10.5758 0001138 244.4142 115.6592 15.27568368154750

JSON: /api/v1/satellites/57609 · /tle

For live sub-satellite position, see the globe view (requires WebGL).

§ Visibility from observer

Set your observer location to see the next 7 days of passes ≥ 10°. The values pass through the URL so the page stays shareable.

No JS? Fill the form by hand. The geolocation button needs JavaScript.